Location: UBC Liquid-Mirror Observatory
(49.2876°N, 122.5728°W)
Time: 17:12:55
(UTC-07:00)

Amateur Radio Satellites - All Passes

Search period start: 25 September 2016 16:42
Search period end: 26 September 2016 16:42
Location: UBC Liquid-Mirror Observatory, 49.2876°N, 122.5728°W

Satellite Date Start Highest point End Downlink Frequencies (MHz)
Time Altitude Azimuth
BEESAT 25 Sep 16:48:32 16:52:56 37° 294° (WNW) 16:57:19 436.000
STARS 25 Sep 16:49:57 16:53:02 19° 91° (E) 16:56:07 437.465
Cosmos 2491 25 Sep 16:50:53 16:59:28 55° 287° (WNW) 17:08:09 435.465 / 435.565
YUBILEINY 25 Sep 16:53:03 16:59:36 25° 283° (WNW) 17:06:10 435.215
MOZHAYETS 4 25 Sep 17:00:18 17:04:57 70° 102° (ESE) 17:09:35
AO-7 25 Sep 17:01:51 17:09:17 35° 264° (W) 17:16:45 29.400- 29.500
BRITE-PL 25 Sep 17:09:20 17:14:44 45° 68° (ENE) 17:20:02 437.365/2234.400
LilacSat-2 25 Sep 17:09:21 17:11:12 13° 60° (ENE) 17:13:03 437.200
NOAA 15 25 Sep 17:09:24 17:13:46 27° 60° (ENE) 17:18:08 137.62
HO-68 25 Sep 17:09:58 17:11:16 11° 35° (NE) 17:12:35 435.675
GOMX 1 25 Sep 17:13:25 17:17:42 25° 62° (ENE) 17:21:50 467.674
Cubesat XI-IV 25 Sep 17:16:19 17:20:33 25° 59° (ENE) 17:24:50 437.490
CUTE-I 25 Sep 17:17:16 17:21:33 26° 60° (ENE) 17:25:52 437.470
Cosmos 2504 25 Sep 17:27:43 17:33:52 30° 276° (W) 17:40:18 435.465 / 435.565
NOAA 18 25 Sep 17:36:00 17:40:45 31° 61° (ENE) 17:45:31 137.9125
KKS-1 25 Sep 17:44:37 17:49:04 70° 287° (WNW) 17:53:26 437.445
DOVE 4 25 Sep 17:48:23 17:52:12 23° 62° (ENE) 17:55:52 437.250
ITUPSAT 1 25 Sep 18:00:34 18:02:06 11° 308° (NW) 18:03:38 437.325
HORYU 2 25 Sep 18:07:34 18:11:33 33° 263° (W) 18:15:33 437.375
SO-50 25 Sep 18:09:10 18:13:39 37° 321° (NW) 18:18:05 436.795
O/OREOS (USA 219) 25 Sep 18:12:18 18:16:50 57° 249° (WSW) 18:21:19 437.305
CUBESAT XI-V 25 Sep 18:13:04 18:17:43 55° 100° (E) 18:22:18 437.345
AIST 1 25 Sep 18:15:25 18:18:37 21° 274° (W) 18:21:48
STARS 25 Sep 18:25:27 18:29:44 54° 290° (WNW) 18:33:58 437.465
RS-15 25 Sep 18:31:45 18:32:51 10° 87° (E) 18:33:55 29.354- 29.394
CUSAT 1 25 Sep 18:32:37 18:36:53 18° 76° (ENE) 18:41:35 437.405
MOZHAYETS 4 25 Sep 18:38:31 18:41:38 18° 301° (WNW) 18:44:45
LilacSat-2 25 Sep 18:41:16 18:45:01 67° 257° (WSW) 18:48:48 437.200
CUTE 1.7 + AOD 2 25 Sep 18:43:52 18:46:12 15° 59° (ENE) 18:48:34 437.475
CANX-2 25 Sep 18:44:12 18:46:52 17° 60° (ENE) 18:49:34 2200.000
NOAA 15 25 Sep 18:48:02 18:53:14 55° 259° (W) 18:58:29 137.62
BRITE-PL 25 Sep 18:48:10 18:53:18 34° 266° (W) 18:58:22 437.365/2234.400
GOMX 1 25 Sep 18:50:06 18:55:27 59° 260° (W) 19:00:34 467.674
HO-68 25 Sep 18:50:37 18:57:01 37° 58° (ENE) 19:03:27 435.675
SEEDS 25 Sep 18:50:41 18:52:28 12° 57° (ENE) 18:54:15 437.485
Cosmos 2499 25 Sep 18:52:13 18:57:36 21° 58° (ENE) 19:03:12 435.465 / 435.565
Cosmos 2491 25 Sep 18:54:03 18:58:48 15° 314° (NW) 19:03:35 435.465 / 435.565
Cubesat XI-IV 25 Sep 18:55:02 19:00:17 59° 258° (WSW) 19:05:34 437.490
CUTE-I 25 Sep 18:56:03 19:01:16 58° 259° (WSW) 19:06:32 437.470
CUBEBUG 2 25 Sep 19:09:37 19:10:29 11° 56° (NE) 19:11:21 437.445
NOAA 18 25 Sep 19:15:58 19:21:15 48° 260° (W) 19:26:32 137.9125
GONETS M04 25 Sep 19:16:45 19:24:48 37° 65° (ENE) 19:32:43
CINEMA 3 25 Sep 19:18:16 19:22:26 39° 69° (ENE) 19:26:27 145.822/145.860
AAUSAT CUBESAT 2 25 Sep 19:20:13 19:22:19 14° 58° (ENE) 19:24:26 437.432
KKS-1 25 Sep 19:23:43 19:24:48 11° 307° (NW) 19:25:53 437.445
DOVE 4 25 Sep 19:24:37 19:29:36 57° 260° (W) 19:34:19 437.250
UWE-3 25 Sep 19:32:12 19:33:49 12° 57° (ENE) 19:35:26 435.000/436.395/437.385
DANDE 25 Sep 19:39:00 19:42:52 20° 78° (ENE) 19:47:27 436.750
CUBESAT XI-V 25 Sep 19:51:08 19:54:45 22° 299° (WNW) 19:58:20 437.345
SO-50 25 Sep 19:52:39 19:55:25 15° 344° (NNW) 19:58:09 436.795
STRAND 1 25 Sep 19:52:50 19:57:22 30° 95° (E) 20:01:54 437.568
COMPASS 1 25 Sep 19:59:50 20:03:41 37° 69° (ENE) 20:07:35 437.405
ZACube-1 25 Sep 20:06:00 20:08:38 17° 60° (ENE) 20:11:17 437.345
Oscar 11 25 Sep 20:08:26 20:11:23 18° 61° (ENE) 20:14:21 145.826/435.025
CUSAT 1 25 Sep 20:11:15 20:17:31 82° 98° (E) 20:25:13 437.405
CUTE 1.7 + AOD 2 25 Sep 20:17:16 20:21:30 76° 258° (WSW) 20:25:46 437.475
CANX-2 25 Sep 20:18:03 20:22:15 65° 259° (WSW) 20:26:31 2200.000
SEEDS 25 Sep 20:23:18 20:27:30 89° 76° (ENE) 20:31:46 437.485
RS-15 25 Sep 20:30:54 20:41:47 49° 112° (ESE) 20:53:10 29.354- 29.394
HO-68 25 Sep 20:37:28 20:44:30 57° 258° (WSW) 20:51:35 435.675
CUBEBUG 2 25 Sep 20:42:13 20:46:24 78° 76° (ENE) 20:50:35 437.445
Cosmos 2499 25 Sep 20:44:23 20:51:49 86° 81° (E) 20:59:49 435.465 / 435.565
HUMSAT D 25 Sep 20:49:43 20:50:38 11° 56° (NE) 20:51:32 437.325/437.525
AAUSAT CUBESAT 2 25 Sep 20:53:03 20:57:13 80° 257° (WSW) 21:01:26 437.432
CINEMA 3 25 Sep 20:55:59 20:59:42 25° 266° (W) 21:03:18 145.822/145.860
DELFI C3 25 Sep 20:59:49 21:02:58 23° 64° (ENE) 21:06:09 145.870
FUNcube-1 25 Sep 20:59:51 21:03:49 48° 71° (ENE) 21:07:50 145.935
UWE-3 25 Sep 21:05:29 21:09:40 90° 284° (WNW) 21:13:50 435.000/436.395/437.385
GONETS M04 25 Sep 21:13:31 21:22:12 63° 268° (W) 21:30:46
DANDE 25 Sep 21:19:21 21:24:32 75° 284° (WNW) 21:31:30 436.750
STRAND 1 25 Sep 21:31:50 21:36:41 43° 293° (WNW) 21:41:32 437.568
SO-50 25 Sep 21:35:33 21:37:50 13° 9° (N) 21:40:04 436.795
COMPASS 1 25 Sep 21:35:54 21:39:21 25° 267° (W) 21:42:50 437.405
ZACube-1 25 Sep 21:40:25 21:44:31 60° 259° (W) 21:48:39 437.345
Oscar 11 25 Sep 21:42:51 21:47:06 59° 260° (W) 21:51:24 145.826/435.025
ISS 25 Sep 21:48:56 21:51:32 22° 142° (SE) 21:54:08 145.825
CUSAT 1 25 Sep 21:55:09 22:00:37 26° 304° (NW) 22:06:51 437.405
SEEDS 25 Sep 22:03:00 22:03:51 11° 274° (W) 22:04:44 437.485
AO-85 25 Sep 22:08:57 22:13:50 43° 121° (ESE) 22:18:25 145.980
PRISM 25 Sep 22:18:34 22:22:45 82° 103° (ESE) 22:26:53 437.425
HUMSAT D 25 Sep 22:21:26 22:25:31 79° 75° (ENE) 22:29:39 437.325/437.525
CUBEBUG 2 25 Sep 22:22:02 22:23:36 12° 273° (W) 22:25:11 437.445
ESTCUBE 1 25 Sep 22:24:51 22:28:07 20° 60° (ENE) 22:31:25 437.505/2401.250
M-CUBED/EXP-1 PRIME 25 Sep 22:27:48 22:29:44 13° 54° (NE) 22:31:36 437.505
HO-68 25 Sep 22:32:12 22:33:50 11° 279° (W) 22:35:28 435.675
DELFI C3 25 Sep 22:33:51 22:37:37 39° 262° (W) 22:41:25 145.870
VELOX 1 25 Sep 22:35:20 22:37:39 14° 56° (ENE) 22:39:56 145.980
FUNcube-1 25 Sep 22:37:28 22:40:22 18° 269° (W) 22:43:17 145.935
ANTELSAT 25 Sep 22:37:42 22:41:03 21° 92° (E) 22:44:27 437.575/2403.000
Cosmos 2499 25 Sep 22:38:48 22:44:05 21° 281° (W) 22:49:36 435.465 / 435.565
RS-15 25 Sep 22:42:08 22:53:56 68° 318° (NW) 23:06:17 29.354- 29.394
CUBEBUG 1 25 Sep 22:44:35 22:47:47 20° 61° (ENE) 22:50:58 437.445
TIGRISAT 25 Sep 22:58:32 23:02:26 31° 96° (E) 23:06:23 435.000
DANDE 25 Sep 23:05:11 23:08:59 17° 312° (NW) 23:13:21 436.750
50 SAT 25 Sep 23:10:50 23:13:38 21° 64° (ENE) 23:16:27 437.505
GONETS M04 25 Sep 23:12:58 23:17:06 14° 291° (WNW) 23:21:14
SO-50 25 Sep 23:15:49 23:19:50 28° 33° (NNE) 23:23:45 436.795
ISS 25 Sep 23:24:26 23:27:43 89° 209° (SSW) 23:31:01 145.825
AUBIESAT-1 25 Sep 23:24:49 23:28:30 35° 63° (ENE) 23:31:57 437.475
AISAT 25 Sep 23:25:34 23:29:41 38° 67° (ENE) 23:33:49 437.250
SPROUT 25 Sep 23:35:50 23:39:23 26° 64° (ENE) 23:42:56 437.525
UNISAT 6 25 Sep 23:38:08 23:42:31 80° 105° (ESE) 23:46:58 437.425
JAS-2 25 Sep 23:39:15 23:44:56 21° 84° (E) 23:50:31 435.910
UKube-1 25 Sep 23:45:04 23:48:51 30° 65° (ENE) 23:52:39 .
QB50P1 25 Sep 23:45:24 23:47:52 15° 89° (E) 23:50:21 145.935-145.965
DUCHIFAT 1 25 Sep 23:46:09 23:48:14 13° 89° (E) 23:50:20 145.980
AO-85 25 Sep 23:49:37 23:54:22 39° 319° (NW) 23:58:48 145.980
PRISM 25 Sep 23:55:25 23:57:27 13° 303° (WNW) 23:59:29 437.425
POPSAT HIP 1 25 Sep 23:58:12 00:01:19 20° 92° (E) 00:04:26 437.405
M-CUBED/EXP-1 PRIME 25 Sep 23:59:40 00:03:50 84° 249° (WSW) 00:07:41 437.505
ESTCUBE 1 26 Sep 00:00:03 00:04:32 59° 259° (W) 00:09:04 437.505/2401.250
HUMSAT D 26 Sep 00:00:21 00:01:43 11° 273° (W) 00:03:05 437.325/437.525
DX 1 26 Sep 00:08:39 00:12:58 63° 72° (ENE) 00:17:20 434.975-435.025
VELOX 1 26 Sep 00:09:00 00:13:28 88° 256° (WSW) 00:17:58 145.980
ANTELSAT 26 Sep 00:13:49 00:18:01 47° 290° (WNW) 00:22:17 437.575/2403.000
NANOSAT C BR1 26 Sep 00:15:47 00:19:25 28° 95° (E) 00:23:03 145.865
CUBEBUG 1 26 Sep 00:19:20 00:23:42 57° 259° (W) 00:28:05 437.445
TIGRISAT 26 Sep 00:35:15 00:39:08 32° 293° (WNW) 00:43:03 435.000
QB50P2 26 Sep 00:36:43 00:40:51 51° 100° (E) 00:44:58 145.880/145.840
POLYITAN 1 26 Sep 00:38:58 00:43:05 51° 100° (E) 00:47:12 437.675
50 SAT 26 Sep 00:43:37 00:46:57 34° 263° (W) 00:50:21 437.505
BEESAT 26 Sep 00:48:18 00:48:51 10° 51° (NE) 00:49:24 436.000
SO-50 26 Sep 00:56:07 01:00:42 65° 235° (SW) 01:05:09 436.795
RS-15 26 Sep 00:57:54 01:09:05 40° 350° (N) 01:20:34 29.354- 29.394
Cosmos 2491 26 Sep 00:59:18 01:06:31 27° 58° (ENE) 01:13:41 435.465 / 435.565
AUBIESAT-1 26 Sep 00:59:38 01:03:00 25° 258° (WSW) 01:06:12 437.475
ISS 26 Sep 01:01:09 01:04:23 54° 1° (N) 01:07:38 145.825
AISAT 26 Sep 01:02:28 01:06:16 27° 266° (W) 01:10:04 437.250
TISAT 1 26 Sep 01:03:45 01:07:44 43° 69° (ENE) 01:11:43 437.305
SPROUT 26 Sep 01:11:12 01:15:11 37° 262° (W) 01:19:11 437.525
UNISAT 6 26 Sep 01:16:17 01:18:41 15° 302° (WNW) 01:21:07 437.425
Oscar 19 26 Sep 01:18:24 01:20:51 13° 86° (E) 01:23:17 437.125/150
QB50P1 26 Sep 01:19:55 01:24:04 62° 288° (WNW) 01:28:13 145.935-145.965
DUCHIFAT 1 26 Sep 01:20:14 01:24:25 70° 286° (WNW) 01:28:35 145.980
UKube-1 26 Sep 01:20:55 01:24:51 33° 263° (W) 01:28:48 .
JAS-2 26 Sep 01:23:04 01:31:01 84° 106° (ESE) 01:38:44 435.910
BUGSAT 1 26 Sep 01:31:48 01:35:50 68° 103° (ESE) 01:39:49 437.445
AO-85 26 Sep 01:33:19 01:36:01 15° 341° (NNW) 01:38:37 145.980
POPSAT HIP 1 26 Sep 01:33:19 01:37:21 47° 290° (WNW) 01:41:23 437.405
DX 1 26 Sep 01:46:50 01:49:36 16° 270° (W) 01:52:21 434.975-435.025
VELOX 1 26 Sep 01:49:16 01:50:37 11° 274° (W) 01:51:57 145.980
BEESAT 3 26 Sep 01:50:49 01:54:13 29° 118° (ESE) 01:57:39 437.485
NANOSAT C BR1 26 Sep 01:51:25 01:55:11 33° 293° (WNW) 01:58:57 145.865
ITUPSAT 1 26 Sep 01:53:57 01:58:12 34° 65° (ENE) 02:02:31 437.325
Gurwin Techsat 1B 26 Sep 01:58:10 02:01:17 16° 87° (E) 02:04:23 435.225
SWISSCUBE 26 Sep 02:07:52 02:12:26 49° 69° (ENE) 02:17:04 437.505
YUBILEINY 26 Sep 02:07:55 02:13:51 21° 75° (ENE) 02:19:46 435.215
QB50P2 26 Sep 02:13:16 02:16:21 20° 298° (WNW) 02:19:25 145.880/145.840
POLYITAN 1 26 Sep 02:15:30 02:18:35 20° 298° (WNW) 02:21:38 437.675
BEESAT 26 Sep 02:21:00 02:25:40 58° 70° (ENE) 02:30:21 436.000
MOZHAYETS 4 26 Sep 02:31:16 02:34:01 16° 58° (ENE) 02:36:47
ISS 26 Sep 02:37:44 02:41:02 85° 200° (SSW) 02:44:20 145.825
TISAT 1 26 Sep 02:40:21 02:43:35 21° 267° (W) 02:46:48 437.305
BEESAT 2 26 Sep 02:41:22 02:45:09 47° 122° (ESE) 02:49:00 435.950
Cosmos 2491 26 Sep 02:55:41 03:04:36 86° 264° (W) 03:13:27 435.465 / 435.565
Oscar 19 26 Sep 02:55:45 03:00:58 86° 105° (ESE) 03:06:06 437.125/150
AO-7 26 Sep 03:06:50 03:10:52 14° 83° (E) 03:14:52 29.400- 29.500
BUGSAT 1 26 Sep 03:08:28 03:10:43 15° 301° (WNW) 03:12:58 437.445
JAS-2 26 Sep 03:08:49 03:15:13 29° 305° (NW) 03:21:35 435.910
KKS-1 26 Sep 03:11:02 03:14:36 24° 62° (ENE) 03:18:11 437.445
RS-15 26 Sep 03:13:32 03:25:16 46° 23° (NNE) 03:37:01 29.354- 29.394
AO-85 26 Sep 03:16:46 03:18:23 12° 6° (N) 03:19:57 145.980
BEESAT 3 26 Sep 03:28:04 03:31:46 39° 318° (NW) 03:35:31 437.485
ITUPSAT 1 26 Sep 03:31:41 03:36:02 35° 264° (W) 03:40:25 437.325
Gurwin Techsat 1B 26 Sep 03:36:35 03:41:57 86° 288° (WNW) 03:47:16 435.225
ITAMSAT 1 26 Sep 03:44:21 03:49:10 36° 97° (E) 03:53:59 435.822/435.867
CUBESAT XI-V 26 Sep 03:45:45 03:48:08 14° 56° (NE) 03:50:30 437.345
SWISSCUBE 26 Sep 03:46:41 03:50:30 24° 267° (W) 03:54:21 437.505
STARS 26 Sep 03:50:14 03:54:00 29° 64° (ENE) 03:57:46 437.465
BEESAT 26 Sep 04:00:22 04:03:50 20° 269° (W) 04:07:19 436.000
YUBILEINY 26 Sep 04:00:31 04:09:19 83° 96° (E) 04:18:06 435.215
MOZHAYETS 4 26 Sep 04:06:02 04:10:37 79° 258° (WSW) 04:15:14
ISS 26 Sep 04:14:40 04:17:12 20° 219° (SW) 04:19:43 145.825
Cosmos 2504 26 Sep 04:17:34 04:24:26 44° 89° (E) 04:31:09 435.465 / 435.565
BEESAT 2 26 Sep 04:19:42 04:23:09 28° 322° (NW) 04:26:39 435.950
Oscar 19 26 Sep 04:36:18 04:39:38 18° 305° (NW) 04:42:56 437.125/150
AIST 2 26 Sep 04:46:04 04:49:52 37° 120° (ESE) 04:53:43 435.215
KKS-1 26 Sep 04:46:40 04:50:57 45° 261° (W) 04:55:14 437.445
Cosmos 2491 26 Sep 04:53:58 05:00:10 22° 285° (WNW) 05:06:20 435.465 / 435.565
AO-85 26 Sep 04:56:53 05:00:26 23° 31° (NNE) 05:03:47 145.980
AO-7 26 Sep 04:57:06 05:05:22 64° 105° (ESE) 05:13:35 29.400- 29.500
CUSAT 1 26 Sep 04:59:29 05:05:39 24° 54° (NE) 05:11:22 437.405
BEESAT 3 26 Sep 05:08:50 05:10:29 12° 340° (NNW) 05:12:09 437.485
AIST 1 26 Sep 05:11:27 05:14:46 21° 87° (E) 05:18:05
Gurwin Techsat 1B 26 Sep 05:17:54 05:21:10 17° 306° (NW) 05:24:24 435.225
CUBESAT XI-V 26 Sep 05:20:04 05:24:47 84° 75° (ENE) 05:29:32 437.345
ITAMSAT 1 26 Sep 05:23:53 05:28:39 37° 296° (WNW) 05:33:25 435.822/435.867
STARS 26 Sep 05:26:13 05:30:15 36° 262° (W) 05:34:20 437.465
RS-15 26 Sep 05:26:56 05:39:25 89° 231° (SW) 05:51:39 29.354- 29.394
PCSat 26 Sep 05:27:32 05:32:44 50° 117° (ESE) 05:37:59 145.827
STRAND 1 26 Sep 05:37:25 05:39:27 12° 51° (NE) 05:41:30 437.568
MOZHAYETS 4 26 Sep 05:48:11 05:48:34 10° 275° (W) 05:48:57
HORYU 2 26 Sep 05:53:44 05:57:47 33° 97° (E) 06:01:48 437.375
YUBILEINY 26 Sep 06:00:03 06:07:15 27° 301° (WNW) 06:14:29 435.215
BEESAT 2 26 Sep 06:01:27 06:02:16 10° 345° (NNW) 06:03:06 435.950
DANDE 26 Sep 06:09:35 06:16:51 33° 62° (ENE) 06:24:07 436.750
Cosmos 2504 26 Sep 06:11:00 06:17:52 41° 290° (WNW) 06:24:38 435.465 / 435.565
LilacSat-2 26 Sep 06:13:03 06:13:31 10° 87° (E) 06:13:59 437.200
AIST 2 26 Sep 06:24:36 06:28:23 34° 320° (NW) 06:32:14 435.215
AO-85 26 Sep 06:37:06 06:41:21 71° 235° (SW) 06:45:18 145.980
CUSAT 1 26 Sep 06:40:56 06:49:00 83° 76° (ENE) 06:56:01 437.405
AIST 1 26 Sep 06:47:53 06:52:06 44° 285° (WNW) 06:56:18
GOMX 1 26 Sep 06:48:29 06:52:29 30° 94° (E) 06:56:15 467.674
BRITE-PL 26 Sep 06:48:40 06:53:42 69° 101° (E) 06:58:18 437.365/2234.400
AO-7 26 Sep 06:50:20 06:57:48 39° 306° (NW) 07:05:14 29.400- 29.500
NOAA 15 26 Sep 06:58:49 07:03:50 40° 98° (E) 07:08:48 137.62
CUBESAT XI-V 26 Sep 07:00:30 07:02:49 13° 274° (W) 07:05:07 437.345
Cubesat XI-IV 26 Sep 07:07:53 07:12:56 40° 97° (E) 07:17:57 437.490
CUTE-I 26 Sep 07:08:40 07:13:44 41° 98° (E) 07:18:47 437.470
PCSat 26 Sep 07:11:20 07:16:20 36° 318° (NW) 07:21:22 145.827
STRAND 1 26 Sep 07:12:39 07:17:41 65° 71° (ENE) 07:22:46 437.568
DOVE 4 26 Sep 07:19:50 07:23:26 26° 93° (E) 07:26:56 437.250
HORYU 2 26 Sep 07:30:22 07:34:18 31° 295° (WNW) 07:38:14 437.375
NOAA 18 26 Sep 07:33:20 07:38:40 52° 100° (E) 07:44:00 137.9125
PRISM 26 Sep 07:38:48 07:40:59 14° 57° (ENE) 07:43:09 437.425
Cosmos 2499 26 Sep 07:40:04 07:41:44 11° 71° (ENE) 07:43:23 435.465 / 435.565
RS-15 26 Sep 07:40:23 07:50:26 31° 257° (WSW) 08:00:21 29.354- 29.394
LilacSat-2 26 Sep 07:44:30 07:48:21 79° 284° (WNW) 07:52:10 437.200
DANDE 26 Sep 07:52:06 08:00:23 76° 262° (W) 08:08:31 436.750
CUTE 1.7 + AOD 2 26 Sep 07:59:11 08:01:37 15° 88° (E) 08:04:03 437.475
CANX-2 26 Sep 07:59:44 08:02:34 17° 90° (E) 08:05:24 2200.000
HO-68 26 Sep 08:00:58 08:06:34 24° 90° (E) 08:12:08 435.675
SEEDS 26 Sep 08:04:54 08:06:29 12° 87° (E) 08:08:04 437.485
AIST 2 26 Sep 08:06:20 08:08:05 12° 343° (NNW) 08:09:48 435.215
GONETS M04 26 Sep 08:23:53 08:31:31 35° 82° (E) 08:39:11
CUSAT 1 26 Sep 08:24:00 08:30:04 25° 280° (W) 08:35:37 437.405
GOMX 1 26 Sep 08:26:31 08:30:37 33° 294° (WNW) 08:34:29 467.674
BEESAT 3 26 Sep 08:26:36 08:29:13 17° 28° (NNE) 08:31:51 437.485
BRITE-PL 26 Sep 08:28:06 08:31:36 19° 303° (WNW) 08:34:56 437.365/2234.400
O/OREOS (USA 219) 26 Sep 08:28:17 08:32:49 74° 114° (ESE) 08:37:26 437.305
CUBEBUG 2 26 Sep 08:30:22 08:31:57 12° 87° (E) 08:33:35 437.445
AAUSAT CUBESAT 2 26 Sep 08:32:46 08:34:38 13° 87° (E) 08:36:28 437.432
NOAA 15 26 Sep 08:38:47 08:43:33 34° 297° (WNW) 08:48:17 137.62
AO-7 26 Sep 08:44:49 08:48:18 13° 331° (NNW) 08:51:48 29.400- 29.500
CINEMA 3 26 Sep 08:45:10 08:49:15 52° 100° (E) 08:53:21 145.822/145.860
Cubesat XI-IV 26 Sep 08:48:08 08:52:57 35° 296° (WNW) 08:57:46 437.490
CUTE-I 26 Sep 08:48:55 08:53:42 34° 297° (WNW) 08:58:30 437.470
UWE-3 26 Sep 08:51:58 08:54:09 14° 88° (E) 08:56:20 435.000/436.395/437.385
STRAND 1 26 Sep 08:53:41 08:57:21 20° 270° (W) 09:01:02 437.568
DOVE 4 26 Sep 08:57:21 09:01:15 34° 293° (WNW) 09:05:01 437.250
PCSat 26 Sep 08:58:25 09:01:22 14° 343° (NNW) 09:04:19 145.827
UNISAT 6 26 Sep 09:06:31 09:09:02 15° 59° (ENE) 09:11:33 437.425
PRISM 26 Sep 09:11:32 09:15:43 80° 256° (WSW) 09:19:56 437.425
COMPASS 1 26 Sep 09:13:34 09:17:34 39° 97° (E) 09:21:32 437.405
NOAA 18 26 Sep 09:14:27 09:19:06 29° 300° (WNW) 09:23:44 137.9125
BEESAT 2 26 Sep 09:18:02 09:21:13 22° 33° (NNE) 09:24:24 435.950
ZACube-1 26 Sep 09:24:50 09:27:56 19° 91° (E) 09:31:04 437.345
Cosmos 2499 26 Sep 09:26:15 09:33:15 61° 93° (E) 09:40:11 435.465 / 435.565
Oscar 11 26 Sep 09:26:28 09:29:37 19° 91° (E) 09:32:45 145.826/435.025
CUTE 1.7 + AOD 2 26 Sep 09:33:38 09:37:55 67° 287° (WNW) 09:42:12 437.475
CANX-2 26 Sep 09:34:33 09:38:48 58° 288° (WNW) 09:43:01 2200.000
DANDE 26 Sep 09:36:24 09:41:58 20° 282° (WNW) 09:47:29 436.750
SEEDS 26 Sep 09:38:29 09:42:47 83° 286° (WNW) 09:47:03 437.485
ANTELSAT 26 Sep 09:40:32 09:44:15 30° 66° (ENE) 09:47:58 437.575/2403.000
HO-68 26 Sep 09:47:52 09:55:03 79° 290° (WNW) 10:02:11 435.675
JAS-2 26 Sep 09:57:46 10:01:51 17° 44° (NE) 10:06:09 435.910
TIGRISAT 26 Sep 10:01:11 10:05:13 44° 69° (ENE) 10:09:16 435.000
BEESAT 3 26 Sep 10:03:35 10:07:34 72° 49° (NE) 10:11:32 437.485
CUBEBUG 2 26 Sep 10:04:54 10:09:09 82° 285° (WNW) 10:13:29 437.445
AAUSAT CUBESAT 2 26 Sep 10:06:25 10:10:38 76° 286° (WNW) 10:14:49 437.432
DELFI C3 26 Sep 10:07:28 10:10:28 20° 92° (E) 10:13:28 145.870
O/OREOS (USA 219) 26 Sep 10:09:28 10:12:47 19° 315° (NW) 10:16:08 437.305
GONETS M04 26 Sep 10:19:03 10:27:49 65° 285° (WNW) 10:36:40
FUNcube-1 26 Sep 10:19:12 10:23:27 59° 101° (E) 10:27:46 145.935
CINEMA 3 26 Sep 10:23:11 10:26:04 19° 298° (WNW) 10:28:59 145.822/145.860
UWE-3 26 Sep 10:26:50 10:31:05 72° 286° (WNW) 10:35:26 435.000/436.395/437.385
UNISAT 6 26 Sep 10:41:00 10:45:15 71° 257° (WSW) 10:49:32 437.425
QB50P1 26 Sep 10:41:39 10:44:46 20° 62° (ENE) 10:47:53 145.935-145.965
DUCHIFAT 1 26 Sep 10:41:47 10:44:39 18° 61° (ENE) 10:47:33 145.980
PCSat 26 Sep 10:44:55 10:47:13 12° 9° (N) 10:49:30 145.827
COMPASS 1 26 Sep 10:49:30 10:52:57 25° 296° (WNW) 10:56:22 437.405
BUGSAT 1 26 Sep 10:53:26 10:54:33 11° 56° (NE) 10:55:39 437.445
POPSAT HIP 1 26 Sep 10:54:32 10:58:02 26° 65° (ENE) 11:01:32 437.405
BEESAT 2 26 Sep 10:55:26 10:59:28 72° 234° (SW) 11:03:27 435.950
ZACube-1 26 Sep 11:00:21 11:04:31 51° 288° (WNW) 11:08:45 437.345
Oscar 11 26 Sep 11:01:48 11:06:03 52° 289° (WNW) 11:10:16 145.826/435.025
NANOSAT C BR1 26 Sep 11:11:40 11:15:30 36° 68° (ENE) 11:19:21 145.865
SEEDS 26 Sep 11:16:13 11:17:47 12° 304° (WNW) 11:19:19 437.485
ANTELSAT 26 Sep 11:17:07 11:20:56 32° 264° (W) 11:24:46 437.575/2403.000
Cosmos 2499 26 Sep 11:20:47 11:26:52 30° 296° (WNW) 11:32:59 435.465 / 435.565
AIST 2 26 Sep 11:25:16 11:28:28 21° 31° (NNE) 11:31:40 435.215
QB50P2 26 Sep 11:33:02 11:37:12 65° 73° (ENE) 11:41:24 145.880/145.840
POLYITAN 1 26 Sep 11:35:17 11:39:26 65° 73° (ENE) 11:43:37 437.675
HUMSAT D 26 Sep 11:35:53 11:40:09 85° 104° (ESE) 11:44:26 437.325/437.525
HO-68 26 Sep 11:36:42 11:41:46 21° 312° (NW) 11:46:51 435.675
TIGRISAT 26 Sep 11:38:53 11:42:08 21° 268° (W) 11:45:25 435.000
JAS-2 26 Sep 11:38:54 11:45:20 60° 67° (ENE) 11:52:36 435.910
DELFI C3 26 Sep 11:41:41 11:45:31 43° 290° (WNW) 11:49:19 145.870
BEESAT 3 26 Sep 11:42:24 11:44:44 15° 248° (WSW) 11:47:04 437.485
CUBEBUG 2 26 Sep 11:43:44 11:45:07 11° 303° (WNW) 11:46:31 437.445
AAUSAT CUBESAT 2 26 Sep 11:44:26 11:45:22 11° 304° (NW) 11:46:17 437.432
ESTCUBE 1 26 Sep 11:48:49 11:52:21 22° 92° (E) 11:55:52 437.505/2401.250
FUNcube-1 26 Sep 11:56:24 11:59:18 18° 299° (WNW) 12:02:17 145.935
VELOX 1 26 Sep 11:56:33 11:58:37 13° 88° (E) 12:00:41 145.980
CUBEBUG 1 26 Sep 12:04:21 12:07:34 20° 91° (E) 12:10:44 437.445
UWE-3 26 Sep 12:06:06 12:06:49 10° 305° (NW) 12:07:33 435.000/436.395/437.385
50 SAT 26 Sep 12:08:02 12:10:02 14° 90° (E) 12:12:01 437.505
YUBILEINY 26 Sep 12:10:25 12:14:42 14° 45° (NE) 12:18:58 435.215
DUCHIFAT 1 26 Sep 12:15:52 12:19:59 55° 259° (W) 12:24:07 145.980
QB50P1 26 Sep 12:16:10 12:20:15 49° 260° (W) 12:24:21 145.935-145.965
GONETS M04 26 Sep 12:21:10 12:26:47 18° 311° (NW) 12:32:25
AO-7 26 Sep 12:23:28 12:26:19 12° 27° (NNE) 12:29:10 29.400- 29.500
BUGSAT 1 26 Sep 12:25:08 12:29:15 82° 75° (ENE) 12:33:21 437.445
PCSat 26 Sep 12:28:04 12:32:36 26° 35° (NE) 12:37:06 145.827
POPSAT HIP 1 26 Sep 12:29:48 12:33:41 36° 262° (W) 12:37:36 437.405
PHONESAT 2.4 26 Sep 12:38:07 12:38:23 10° 163° (SSE) 12:38:40 2401.200-2431.200
Oscar 19 26 Sep 12:38:22 12:42:54 31° 63° (ENE) 12:47:26 437.125/150
AISAT 26 Sep 12:47:32 12:51:44 41° 98° (E) 12:55:54 437.250
NANOSAT C BR1 26 Sep 12:47:48 12:51:19 26° 266° (W) 12:54:51 145.865
SPROUT 26 Sep 12:52:47 12:56:25 26° 94° (E) 13:00:00 437.525
AIST 2 26 Sep 13:03:17 13:07:30 87° 232° (SW) 13:11:42 435.215
UKube-1 26 Sep 13:03:30 13:07:17 29° 96° (E) 13:11:03 .
M-CUBED/EXP-1 PRIME 26 Sep 13:09:31 13:12:25 28° 102° (ESE) 13:15:17 437.505
QB50P2 26 Sep 13:11:06 13:13:27 15° 271° (W) 13:15:50 145.880/145.840
HUMSAT D 26 Sep 13:13:07 13:15:11 13° 302° (WNW) 13:17:14 437.325/437.525
POLYITAN 1 26 Sep 13:13:22 13:15:42 14° 271° (W) 13:18:02 437.675
Gurwin Techsat 1B 26 Sep 13:22:43 13:27:33 37° 64° (ENE) 13:32:25 435.225
ESTCUBE 1 26 Sep 13:25:01 13:29:26 48° 290° (WNW) 13:33:47 437.505/2401.250
JAS-2 26 Sep 13:25:04 13:30:50 32° 270° (W) 13:37:15 435.910
DX 1 26 Sep 13:28:38 13:32:59 65° 102° (ESE) 13:37:17 434.975-435.025
ITAMSAT 1 26 Sep 13:29:51 13:32:51 16° 53° (NE) 13:35:51 435.822/435.867
VELOX 1 26 Sep 13:31:14 13:35:40 79° 287° (WNW) 13:40:03 145.980
CUBEBUG 1 26 Sep 13:39:55 13:44:09 50° 290° (WNW) 13:48:19 437.445
50 SAT 26 Sep 13:40:16 13:43:52 52° 288° (WNW) 13:47:27 437.505
BUGSAT 1 26 Sep 14:04:00 14:05:11 11° 272° (W) 14:06:22 437.445
Cosmos 2504 26 Sep 14:04:01 14:09:26 21° 59° (ENE) 14:15:01 435.465 / 435.565
YUBILEINY 26 Sep 14:05:34 14:14:05 53° 72° (ENE) 14:22:30 435.215
AUBIESAT-1 26 Sep 14:07:42 14:11:01 66° 292° (WNW) 14:14:18 437.475
Cosmos 2491 26 Sep 14:07:57 14:14:27 24° 77° (ENE) 14:21:00 435.465 / 435.565
AO-7 26 Sep 14:09:27 14:16:40 35° 52° (NE) 14:23:53 29.400- 29.500
PCSat 26 Sep 14:11:11 14:16:39 83° 237° (WSW) 14:22:04 145.827
PHONESAT 2.4 26 Sep 14:11:57 14:13:48 15° 179° (S) 14:15:40 2401.200-2431.200
Oscar 19 26 Sep 14:17:07 14:22:05 44° 262° (W) 14:27:03 437.125/150
TISAT 1 26 Sep 14:18:45 14:22:45 42° 99° (E) 14:26:42 437.305
BEESAT 26 Sep 14:19:31 14:20:33 11° 85° (E) 14:21:35 436.000
AISAT 26 Sep 14:24:25 14:28:02 25° 297° (WNW) 14:31:37 437.250
SPROUT 26 Sep 14:28:32 14:32:26 35° 292° (WNW) 14:36:18 437.525
UKube-1 26 Sep 14:39:27 14:43:22 34° 294° (WNW) 14:47:14 .
AIST 2 26 Sep 14:43:38 14:45:19 12° 250° (WSW) 14:47:00 435.215
M-CUBED/EXP-1 PRIME 26 Sep 14:44:18 14:46:54 21° 301° (WNW) 14:49:26 437.505
Gurwin Techsat 1B 26 Sep 15:02:36 15:07:31 37° 264° (W) 15:12:27 435.225
DX 1 26 Sep 15:05:51 15:08:43 17° 301° (WNW) 15:11:34 434.975-435.025
ITAMSAT 1 26 Sep 15:06:23 15:11:34 83° 73° (ENE) 15:16:47 435.822/435.867
VELOX 1 26 Sep 15:09:44 15:11:23 12° 305° (NW) 15:13:02 145.980
SO-50 26 Sep 15:15:42 15:18:33 16° 111° (ESE) 15:21:22 436.795
ITUPSAT 1 26 Sep 15:27:17 15:31:54 43° 98° (E) 15:36:29 437.325
SWISSCUBE 26 Sep 15:41:10 15:45:58 65° 102° (ESE) 15:50:44 437.505
PHONESAT 2.4 26 Sep 15:48:22 15:49:14 11° 196° (SSW) 15:50:06 2401.200-2431.200
BEESAT 26 Sep 15:54:20 15:59:09 77° 104° (ESE) 16:03:57 436.000
TISAT 1 26 Sep 15:54:53 15:58:10 23° 297° (WNW) 16:01:25 437.305
PCSat 26 Sep 15:56:17 15:59:13 15° 256° (WSW) 16:02:09 145.827
Cosmos 2504 26 Sep 15:56:30 16:03:52 89° 80° (E) 16:11:41 435.465 / 435.565
MOZHAYETS 4 26 Sep 15:57:33 16:00:50 19° 90° (E) 16:04:07
AO-7 26 Sep 16:00:35 16:08:54 73° 253° (WSW) 16:17:14 29.400- 29.500
Cosmos 2491 26 Sep 16:01:21 16:10:10 87° 282° (WNW) 16:19:06 435.465 / 435.565
YUBILEINY 26 Sep 16:02:45 16:10:44 42° 274° (W) 16:18:41 435.215
BRITE-PL 26 Sep 16:25:41 16:29:58 23° 60° (ENE) 16:34:11 437.365/2234.400
GOMX 1 26 Sep 16:26:18 16:27:29 11° 52° (NE) 16:28:39 467.674
KKS-1 26 Sep 16:33:31 16:37:12 25° 94° (E) 16:40:50 437.445
